BTK6560 WIII-WAFF

Flight info

Callsign BTK6560
Flight time 2h 8m
Altitude 37000
Route EGUK2A EGUKO T9 ELAPA ELAP1C
Aircraft A320/M-VGDW/C

Departure

Time 2026-05-05 12:37
Airport Soekarno-Hatta International Airport (WIII)

Arrival

Time 2026-05-05 14:45
Airport Mutiara - SIS Al-Jufrie Airport (WAFF)
Time Latitude Longitude Altitude Speed Heading
2026-05-05 12:13 -6.12286 106.64856 38 ft 0 kts 138°
2026-05-05 12:26 -6.12276 106.64847 38 ft 2 kts 138°
2026-05-05 12:27 -6.12264 106.64836 38 ft 2 kts 138°
2026-05-05 12:27 -6.12253 106.64824 38 ft 2 kts 107°
2026-05-05 12:27 -6.12251 106.64807 38 ft 2 kts 73°
2026-05-05 12:27 -6.12258 106.64792 38 ft 2 kts 38°
2026-05-05 12:28 -6.12273 106.64783 38 ft 2 kts
2026-05-05 12:28 -6.12283 106.64783 38 ft 0 kts 343°
2026-05-05 12:31 -6.12257 106.64768 38 ft 9 kts 329°
2026-05-05 12:31 -6.12191 106.64738 38 ft 9 kts 339°
2026-05-05 12:31 -6.12148 106.64722 38 ft 6 kts 339°
2026-05-05 12:31 -6.12086 106.64697 38 ft 13 kts 338°
2026-05-05 12:32 -6.12006 106.64664 38 ft 10 kts 331°
2026-05-05 12:32 -6.11990 106.64621 38 ft 6 kts 255°
2026-05-05 12:32 -6.12018 106.64557 38 ft 11 kts 248°
2026-05-05 12:32 -6.12041 106.64500 38 ft 7 kts 248°
2026-05-05 12:33 -6.12058 106.64458 38 ft 8 kts 248°
2026-05-05 12:33 -6.12086 106.64387 38 ft 14 kts 248°
2026-05-05 12:33 -6.12127 106.64282 38 ft 18 kts 248°
2026-05-05 12:33 -6.12177 106.64156 38 ft 19 kts 248°
2026-05-05 12:34 -6.12225 106.64040 38 ft 17 kts 248°
2026-05-05 12:34 -6.12257 106.63942 38 ft 12 kts 271°
2026-05-05 12:34 -6.12224 106.63890 39 ft 6 kts 331°
2026-05-05 12:34 -6.12210 106.63886 39 ft 0 kts 343°
2026-05-05 12:35 -6.12208 106.63885 39 ft 3 kts 343°
2026-05-05 12:35 -6.12162 106.63881 39 ft 7 kts 14°
2026-05-05 12:35 -6.12135 106.63898 39 ft 4 kts 37°
2026-05-05 12:36 -6.12092 106.63926 38 ft 10 kts 30°
2026-05-05 12:36 -6.12055 106.63974 37 ft 7 kts 71°
2026-05-05 12:36 -6.12052 106.63984 37 ft 1 kts 70°
2026-05-05 12:36 -6.11994 106.64135 38 ft 58 kts 68°
2026-05-05 12:37 -6.11761 106.64716 40 ft 118 kts 68°
2026-05-05 12:37 -6.11393 106.65637 37 ft 164 kts 68°
2026-05-05 12:37 -6.10936 106.66773 432 ft 173 kts 66°
2026-05-05 12:37 -6.10423 106.67854 1155 ft 170 kts 56°
2026-05-05 12:38 -6.09693 106.68797 1665 ft 179 kts 50°
2026-05-05 12:38 -6.08819 106.69782 1903 ft 198 kts 45°
2026-05-05 12:38 -6.07828 106.70800 2123 ft 217 kts 45°
2026-05-05 12:38 -6.06742 106.71899 2403 ft 225 kts 45°
2026-05-05 12:39 -6.05582 106.73078 2743 ft 248 kts 46°
2026-05-05 12:39 -6.04345 106.74351 3363 ft 258 kts 47°
2026-05-05 12:39 -6.03086 106.75654 4159 ft 262 kts 47°
2026-05-05 12:39 -6.01796 106.76976 5005 ft 270 kts 47°
2026-05-05 12:40 -6.00552 106.78267 5816 ft 271 kts 47°
2026-05-05 12:40 -5.99195 106.79675 6613 ft 275 kts 47°
2026-05-05 12:40 -5.97877 106.81037 7352 ft 278 kts 47°
2026-05-05 12:40 -5.96548 106.82420 8033 ft 281 kts 49°
2026-05-05 12:41 -5.95466 106.84018 8681 ft 285 kts 62°
2026-05-05 12:41 -5.94496 106.85762 9401 ft 291 kts 62°
2026-05-05 12:41 -5.93519 106.87548 10126 ft 290 kts 62°
2026-05-05 12:41 -5.92516 106.89405 10362 ft 315 kts 62°
2026-05-05 12:42 -5.91440 106.91432 10495 ft 336 kts 63°
2026-05-05 12:42 -5.90309 106.93572 10625 ft 357 kts 62°
2026-05-05 12:42 -5.89082 106.95800 10926 ft 369 kts 62°
2026-05-05 12:42 -5.87816 106.98065 11459 ft 374 kts 61°
2026-05-05 12:43 -5.86547 107.00331 12011 ft 378 kts 61°
2026-05-05 12:43 -5.85255 107.02651 12586 ft 382 kts 61°
2026-05-05 12:43 -5.83959 107.04990 13139 ft 384 kts 62°
2026-05-05 12:43 -5.82665 107.07347 13655 ft 388 kts 62°
2026-05-05 12:44 -5.81356 107.09733 14186 ft 391 kts 62°
2026-05-05 12:44 -5.80037 107.12133 14703 ft 394 kts 61°
2026-05-05 12:44 -5.78707 107.14547 15216 ft 396 kts 61°
2026-05-05 12:44 -5.77369 107.16973 15705 ft 399 kts 61°
2026-05-05 12:45 -5.76019 107.19419 16169 ft 402 kts 61°
2026-05-05 12:45 -5.74657 107.21883 16613 ft 405 kts 61°
2026-05-05 12:45 -5.73286 107.24363 17053 ft 406 kts 61°
2026-05-05 12:45 -5.71931 107.26819 17454 ft 409 kts 61°
2026-05-05 12:46 -5.70549 107.29330 17880 ft 412 kts 61°
2026-05-05 12:46 -5.69185 107.31813 18282 ft 414 kts 62°
2026-05-05 12:46 -5.67791 107.34353 18668 ft 417 kts 61°
2026-05-05 12:46 -5.66383 107.36923 19056 ft 419 kts 61°
2026-05-05 12:47 -5.64969 107.39484 19457 ft 417 kts 61°
2026-05-05 12:47 -5.63555 107.42059 19785 ft 423 kts 62°
2026-05-05 12:47 -5.62130 107.44653 20151 ft 425 kts 61°
2026-05-05 12:47 -5.60711 107.47227 20499 ft 427 kts 61°
2026-05-05 12:48 -5.59268 107.49846 20843 ft 429 kts 61°
2026-05-05 12:48 -5.57820 107.52474 21187 ft 431 kts 61°
2026-05-05 12:48 -5.56362 107.55115 21514 ft 433 kts 61°
2026-05-05 12:48 -5.54901 107.57766 21836 ft 436 kts 62°
2026-05-05 12:49 -5.53425 107.60449 22188 ft 438 kts 62°
2026-05-05 12:49 -5.51956 107.63128 22504 ft 438 kts 62°
2026-05-05 12:49 -5.50480 107.65821 22780 ft 441 kts 62°
2026-05-05 12:49 -5.48997 107.68518 23064 ft 442 kts 62°
2026-05-05 12:50 -5.47503 107.71226 23336 ft 444 kts 61°
2026-05-05 12:50 -5.46023 107.73904 23587 ft 444 kts 61°
2026-05-05 12:50 -5.44515 107.76625 23829 ft 446 kts 61°
2026-05-05 12:50 -5.42957 107.79321 24091 ft 448 kts 57°
2026-05-05 12:51 -5.41166 107.81905 24307 ft 450 kts 56°
2026-05-05 12:51 -5.39367 107.84481 24550 ft 452 kts 56°
2026-05-05 12:51 -5.37558 107.87065 24790 ft 453 kts 56°
2026-05-05 12:51 -5.36354 107.88782 24938 ft 455 kts 55°
2026-05-05 12:52 -5.34526 107.91386 25153 ft 457 kts 55°
2026-05-05 12:52 -5.32090 107.94860 25456 ft 458 kts 56°
2026-05-05 12:52 -5.30852 107.96626 25601 ft 459 kts 55°
2026-05-05 12:52 -5.29011 107.99251 25819 ft 460 kts 55°
2026-05-05 12:53 -5.27163 108.01881 26023 ft 462 kts 55°
2026-05-05 12:53 -5.25329 108.04490 26240 ft 463 kts 55°
2026-05-05 12:53 -5.23469 108.07137 26424 ft 464 kts 55°
2026-05-05 12:53 -5.21603 108.09800 26619 ft 466 kts 55°
2026-05-05 12:54 -5.17855 108.15139 27013 ft 469 kts 55°
2026-05-05 12:54 -5.15994 108.17787 27199 ft 470 kts 55°
2026-05-05 12:54 -5.14102 108.20478 27382 ft 472 kts 55°
2026-05-05 12:55 -5.12205 108.23176 27573 ft 474 kts 55°
2026-05-05 12:55 -5.10305 108.25882 27865 ft 473 kts 55°
2026-05-05 12:55 -5.08415 108.28579 28186 ft 472 kts 55°
2026-05-05 12:55 -5.06529 108.31271 28489 ft 471 kts 55°
2026-05-05 12:56 -5.04649 108.33952 28785 ft 470 kts 55°
2026-05-05 12:56 -5.02764 108.36635 29070 ft 469 kts 55°
2026-05-05 12:56 -5.00910 108.39270 29350 ft 468 kts 55°
2026-05-05 12:56 -4.99010 108.41972 29629 ft 468 kts 55°
2026-05-05 12:57 -4.97164 108.44597 29903 ft 466 kts 55°
2026-05-05 12:57 -4.95300 108.47254 30169 ft 466 kts 55°
2026-05-05 12:57 -4.93436 108.49912 30442 ft 466 kts 55°
2026-05-05 12:57 -4.91575 108.52569 30715 ft 465 kts 55°
2026-05-05 12:58 -4.89713 108.55226 30971 ft 465 kts 55°
2026-05-05 12:58 -4.87850 108.57874 31233 ft 464 kts 55°
2026-05-05 12:58 -4.85982 108.60530 31486 ft 465 kts 55°
2026-05-05 12:58 -4.84111 108.63186 31759 ft 465 kts 55°
2026-05-05 12:59 -4.82246 108.65829 32022 ft 464 kts 55°
2026-05-05 12:59 -4.80376 108.68482 32288 ft 464 kts 55°
2026-05-05 12:59 -4.78516 108.71122 32537 ft 464 kts 55°
2026-05-05 13:00 -4.74823 108.76387 33075 ft 464 kts 55°
2026-05-05 13:00 -4.72964 108.79038 33340 ft 463 kts 54°
2026-05-05 13:01 -4.68352 108.87540 34115 ft 463 kts 64°
2026-05-05 13:01 -4.66968 108.90455 34367 ft 462 kts 64°
2026-05-05 13:01 -4.65587 108.93369 34615 ft 462 kts 64°
2026-05-05 13:01 -4.64205 108.96274 34857 ft 462 kts 64°
2026-05-05 13:02 -4.62824 108.99183 35127 ft 461 kts 64°
2026-05-05 13:02 -4.61463 109.02048 35403 ft 459 kts 64°
2026-05-05 13:02 -4.60089 109.04934 35635 ft 459 kts 64°
2026-05-05 13:02 -4.58712 109.07823 35871 ft 458 kts 64°
2026-05-05 13:03 -4.57341 109.10699 36082 ft 457 kts 64°
2026-05-05 13:03 -4.55969 109.13575 36278 ft 457 kts 64°
2026-05-05 13:03 -4.54603 109.16449 36461 ft 456 kts 64°
2026-05-05 13:03 -4.53236 109.19331 36636 ft 456 kts 64°
2026-05-05 13:04 -4.51891 109.22160 36817 ft 455 kts 64°
2026-05-05 13:04 -4.50524 109.25026 36885 ft 455 kts 64°
2026-05-05 13:04 -4.47809 109.30731 36899 ft 451 kts 64°
2026-05-05 13:05 -4.45114 109.36407 36891 ft 450 kts 64°
2026-05-05 13:05 -4.42428 109.42035 36895 ft 450 kts 64°
2026-05-05 13:06 -4.39725 109.47696 36901 ft 450 kts 64°
2026-05-05 13:06 -4.37015 109.53370 36905 ft 451 kts 64°
2026-05-05 13:07 -4.34308 109.59028 36905 ft 449 kts 64°
2026-05-05 13:07 -4.31623 109.64679 36907 ft 449 kts 65°
2026-05-05 13:08 -4.28933 109.70342 36899 ft 449 kts 64°
2026-05-05 13:08 -4.26252 109.75948 36897 ft 448 kts 64°
2026-05-05 13:09 -4.23548 109.81596 36900 ft 449 kts 64°
2026-05-05 13:09 -4.20854 109.87247 36904 ft 449 kts 64°
2026-05-05 13:10 -4.18187 109.92848 36905 ft 447 kts 64°
2026-05-05 13:10 -4.15497 109.98476 36892 ft 447 kts 64°
2026-05-05 13:11 -4.12814 110.04100 36883 ft 447 kts 64°
2026-05-05 13:11 -4.10126 110.09730 36883 ft 448 kts 64°
2026-05-05 13:12 -4.07449 110.15315 36882 ft 448 kts 64°
2026-05-05 13:12 -4.04749 110.20940 36889 ft 448 kts 64°
2026-05-05 13:13 -4.02057 110.26578 36882 ft 449 kts 64°
2026-05-05 13:13 -3.99360 110.32230 36885 ft 449 kts 64°
2026-05-05 13:14 -3.96678 110.37834 36891 ft 448 kts 64°
2026-05-05 13:14 -3.93984 110.43468 36880 ft 448 kts 64°
2026-05-05 13:15 -3.91281 110.49103 36878 ft 448 kts 64°
2026-05-05 13:15 -3.88593 110.54733 36881 ft 448 kts 64°
2026-05-05 13:16 -3.85912 110.60335 36872 ft 449 kts 64°
2026-05-05 13:16 -3.83210 110.65978 36885 ft 449 kts 64°
2026-05-05 13:17 -3.80519 110.71595 36897 ft 449 kts 64°
2026-05-05 13:17 -3.77812 110.77232 36914 ft 448 kts 64°
2026-05-05 13:18 -3.75111 110.82856 36916 ft 448 kts 64°
2026-05-05 13:18 -3.72414 110.88477 36901 ft 447 kts 64°
2026-05-05 13:19 -3.69727 110.94105 36907 ft 447 kts 64°
2026-05-05 13:19 -3.67057 110.99695 36910 ft 447 kts 64°
2026-05-05 13:20 -3.64367 111.05303 36910 ft 447 kts 64°
2026-05-05 13:20 -3.61668 111.10915 36908 ft 446 kts 64°
2026-05-05 13:21 -3.58992 111.16488 36901 ft 446 kts 64°
2026-05-05 13:21 -3.56307 111.22095 36911 ft 445 kts 64°
2026-05-05 13:22 -3.53630 111.27687 36901 ft 443 kts 64°
2026-05-05 13:22 -3.50945 111.33261 36904 ft 444 kts 64°
2026-05-05 13:23 -3.48278 111.38800 36900 ft 444 kts 64°
2026-05-05 13:23 -3.45605 111.44376 36902 ft 443 kts 64°
2026-05-05 13:24 -3.42931 111.49939 36892 ft 443 kts 64°
2026-05-05 13:24 -3.40255 111.55507 36890 ft 444 kts 64°
2026-05-05 13:25 -3.37594 111.61043 36885 ft 444 kts 64°
2026-05-05 13:25 -3.34923 111.66594 36875 ft 443 kts 64°
2026-05-05 13:26 -3.32253 111.72172 36881 ft 443 kts 64°
2026-05-05 13:26 -3.29579 111.77751 36881 ft 444 kts 64°
2026-05-05 13:27 -3.26921 111.83273 36879 ft 443 kts 64°
2026-05-05 13:27 -3.24251 111.88833 36879 ft 443 kts 64°
2026-05-05 13:28 -3.21578 111.94405 36886 ft 443 kts 64°
2026-05-05 13:28 -3.18894 111.99978 36883 ft 444 kts 64°
2026-05-05 13:29 -3.16224 112.05516 36890 ft 444 kts 64°
2026-05-05 13:29 -3.13542 112.11085 36898 ft 443 kts 64°
2026-05-05 13:30 -3.10867 112.16648 36887 ft 444 kts 64°
2026-05-05 13:30 -3.08187 112.22225 36902 ft 445 kts 64°
2026-05-05 13:31 -3.05490 112.27814 36906 ft 446 kts 64°
2026-05-05 13:31 -3.02870 112.33438 36922 ft 445 kts 67°
2026-05-05 13:32 -3.00594 112.39173 36897 ft 445 kts 69°
2026-05-05 13:32 -2.98421 112.44977 36891 ft 444 kts 69°
2026-05-05 13:33 -2.96192 112.50758 36912 ft 444 kts 69°
2026-05-05 13:33 -2.93926 112.56473 36907 ft 445 kts 68°
2026-05-05 13:34 -2.91629 112.62229 36911 ft 445 kts 68°
2026-05-05 13:34 -2.89342 112.67986 36907 ft 444 kts 69°
2026-05-05 13:35 -2.87075 112.73744 36911 ft 445 kts 69°
2026-05-05 13:35 -2.84795 112.79503 36904 ft 446 kts 69°
2026-05-05 13:36 -2.82507 112.85267 36906 ft 445 kts 69°
2026-05-05 13:36 -2.80236 112.91022 36894 ft 444 kts 69°
2026-05-05 13:37 -2.77983 112.96738 36906 ft 444 kts 69°
2026-05-05 13:37 -2.75703 113.02490 36895 ft 444 kts 69°
2026-05-05 13:38 -2.73431 113.08232 36899 ft 444 kts 69°
2026-05-05 13:38 -2.71158 113.13955 36896 ft 444 kts 69°
2026-05-05 13:39 -2.68890 113.19704 36897 ft 444 kts 69°
2026-05-05 13:39 -2.66612 113.25463 36889 ft 444 kts 69°
2026-05-05 13:40 -2.64336 113.31208 36890 ft 444 kts 69°
2026-05-05 13:40 -2.62441 113.35982 36877 ft 444 kts 69°
2026-05-05 13:41 -2.59394 113.42468 36883 ft 445 kts 57°
2026-05-05 13:41 -2.56528 113.46799 36868 ft 445 kts 57°
2026-05-05 13:42 -2.53142 113.51945 36864 ft 445 kts 57°
2026-05-05 13:42 -2.49750 113.57129 36873 ft 444 kts 57°
2026-05-05 13:43 -2.46344 113.62309 36871 ft 445 kts 57°
2026-05-05 13:43 -2.42958 113.67456 36878 ft 446 kts 57°
2026-05-05 13:44 -2.39554 113.72647 36891 ft 446 kts 58°
2026-05-05 13:44 -2.36145 113.77834 36886 ft 445 kts 57°
2026-05-05 13:45 -2.32736 113.83019 36905 ft 446 kts 57°
2026-05-05 13:45 -2.29318 113.88215 36904 ft 447 kts 58°
2026-05-05 13:46 -2.25923 113.93380 36906 ft 447 kts 57°
2026-05-05 13:46 -2.23120 113.98918 36900 ft 446 kts 67°
2026-05-05 13:47 -2.20631 114.04615 36895 ft 445 kts 67°
2026-05-05 13:47 -2.18154 114.10245 36897 ft 445 kts 67°
2026-05-05 13:48 -2.15645 114.15920 36892 ft 446 kts 67°
2026-05-05 13:48 -2.13167 114.21564 36882 ft 445 kts 67°
2026-05-05 13:49 -2.10680 114.27236 36889 ft 446 kts 67°
2026-05-05 13:49 -2.08180 114.32928 36887 ft 446 kts 67°
2026-05-05 13:50 -2.05700 114.38574 36902 ft 447 kts 67°
2026-05-05 13:50 -2.03202 114.44261 36896 ft 446 kts 67°
2026-05-05 13:51 -2.00695 114.49945 36897 ft 447 kts 67°
2026-05-05 13:51 -1.98209 114.55598 36899 ft 446 kts 67°
2026-05-05 13:52 -1.95734 114.61261 36891 ft 446 kts 67°
2026-05-05 13:52 -1.93223 114.66966 36892 ft 446 kts 67°
2026-05-05 13:53 -1.90716 114.72646 36901 ft 446 kts 67°
2026-05-05 13:53 -1.88216 114.78344 36904 ft 446 kts 67°
2026-05-05 13:54 -1.85717 114.84035 36896 ft 447 kts 67°
2026-05-05 13:54 -1.83236 114.89702 36888 ft 446 kts 67°
2026-05-05 13:55 -1.80732 114.95385 36883 ft 447 kts 67°
2026-05-05 13:55 -1.78237 115.01046 36877 ft 447 kts 67°
2026-05-05 13:56 -1.75730 115.06743 36870 ft 447 kts 67°
2026-05-05 13:56 -1.73224 115.12451 36874 ft 448 kts 67°
2026-05-05 13:57 -1.70727 115.18126 36862 ft 449 kts 67°
2026-05-05 13:57 -1.68214 115.23848 36870 ft 449 kts 67°
2026-05-05 13:58 -1.65805 115.29609 36877 ft 449 kts 69°
2026-05-05 13:58 -1.63471 115.35412 36884 ft 449 kts 69°
2026-05-05 13:59 -1.59956 115.44052 36888 ft 449 kts 68°
2026-05-05 14:00 -1.56382 115.52737 36880 ft 450 kts 68°
2026-05-05 14:00 -1.54002 115.58532 36887 ft 450 kts 68°
2026-05-05 14:01 -1.51626 115.64324 36884 ft 450 kts 68°
2026-05-05 14:01 -1.49261 115.70080 36890 ft 451 kts 68°
2026-05-05 14:02 -1.46865 115.75892 36886 ft 451 kts 68°
2026-05-05 14:02 -1.44477 115.81708 36890 ft 451 kts 68°
2026-05-05 14:03 -1.42111 115.87480 36899 ft 451 kts 68°
2026-05-05 14:03 -1.39721 115.93289 36904 ft 452 kts 68°
2026-05-05 14:04 -1.37325 115.99104 36904 ft 452 kts 68°
2026-05-05 14:04 -1.34930 116.04915 36906 ft 452 kts 68°
2026-05-05 14:05 -1.32548 116.10730 36917 ft 451 kts 68°
2026-05-05 14:05 -1.30189 116.16491 36906 ft 450 kts 68°
2026-05-05 14:06 -1.27811 116.22279 36900 ft 450 kts 68°
2026-05-05 14:06 -1.25431 116.28059 36900 ft 450 kts 68°
2026-05-05 14:07 -1.23044 116.33852 36898 ft 450 kts 68°
2026-05-05 14:07 -1.20665 116.39639 36907 ft 450 kts 68°
2026-05-05 14:08 -1.18281 116.45440 36908 ft 450 kts 68°
2026-05-05 14:08 -1.15912 116.51208 36911 ft 452 kts 68°
2026-05-05 14:09 -1.13507 116.57055 36918 ft 452 kts 68°
2026-05-05 14:09 -1.11141 116.62824 36905 ft 451 kts 68°
2026-05-05 14:10 -1.08749 116.68625 36912 ft 451 kts 68°
2026-05-05 14:10 -1.06353 116.74434 36910 ft 451 kts 68°
2026-05-05 14:11 -1.03966 116.80228 36908 ft 450 kts 68°
2026-05-05 14:11 -1.01584 116.86020 36906 ft 450 kts 68°
2026-05-05 14:12 -0.99212 116.91779 36913 ft 451 kts 68°
2026-05-05 14:12 -0.96831 116.97575 36918 ft 450 kts 68°
2026-05-05 14:13 -0.94457 117.03361 36918 ft 450 kts 68°
2026-05-05 14:13 -0.92085 117.09155 36916 ft 450 kts 68°
2026-05-05 14:14 -0.89721 117.14912 36908 ft 451 kts 68°
2026-05-05 14:14 -0.87341 117.20706 36905 ft 451 kts 68°
2026-05-05 14:15 -0.84953 117.26506 36899 ft 451 kts 68°
2026-05-05 14:15 -0.82567 117.32323 36898 ft 453 kts 68°
2026-05-05 14:16 -0.80198 117.38088 36920 ft 451 kts 68°
2026-05-05 14:16 -0.77808 117.43888 36913 ft 451 kts 68°
2026-05-05 14:17 -0.75419 117.49694 36915 ft 450 kts 68°
2026-05-05 14:17 -0.73042 117.55488 36907 ft 450 kts 68°
2026-05-05 14:18 -0.70676 117.61248 36924 ft 451 kts 68°
2026-05-05 14:18 -0.68305 117.67033 36916 ft 449 kts 68°
2026-05-05 14:19 -0.65927 117.72806 36909 ft 449 kts 68°
2026-05-05 14:19 -0.63553 117.78569 36911 ft 447 kts 68°
2026-05-05 14:20 -0.61187 117.84329 36899 ft 448 kts 68°
2026-05-05 14:20 -0.58840 117.90052 36893 ft 448 kts 68°
2026-05-05 14:21 -0.56470 117.95811 36893 ft 448 kts 68°
2026-05-05 14:21 -0.54091 118.01580 36897 ft 449 kts 68°
2026-05-05 14:22 -0.51714 118.07359 36910 ft 449 kts 68°
2026-05-05 14:22 -0.49337 118.13139 36917 ft 449 kts 68°
2026-05-05 14:23 -0.46964 118.18919 36918 ft 449 kts 68°
2026-05-05 14:23 -0.44593 118.24701 36910 ft 449 kts 69°
2026-05-05 14:24 -0.42240 118.30433 36920 ft 448 kts 68°
2026-05-05 14:24 -0.39868 118.36205 36912 ft 449 kts 68°
2026-05-05 14:25 -0.37495 118.41971 36909 ft 448 kts 68°
2026-05-05 14:25 -0.35748 118.47926 36911 ft 447 kts 78°
2026-05-05 14:26 -0.34436 118.53980 36907 ft 447 kts 78°
2026-05-05 14:26 -0.33088 118.60054 36889 ft 448 kts 78°
2026-05-05 14:27 -0.31749 118.66154 36894 ft 449 kts 78°
2026-05-05 14:27 -0.30419 118.72248 36905 ft 449 kts 78°
2026-05-05 14:28 -0.29095 118.78307 36488 ft 449 kts 78°
2026-05-05 14:28 -0.28431 118.81366 35676 ft 452 kts 78°
2026-05-05 14:28 -0.27761 118.84440 34867 ft 454 kts 79°
2026-05-05 14:29 -0.27086 118.87533 33977 ft 457 kts 78°
2026-05-05 14:29 -0.26405 118.90653 33037 ft 461 kts 79°
2026-05-05 14:29 -0.25951 118.92737 32394 ft 464 kts 79°
2026-05-05 14:29 -0.25262 118.95908 31367 ft 469 kts 79°
2026-05-05 14:30 -0.24562 118.99108 30335 ft 473 kts 79°
2026-05-05 14:30 -0.23856 119.02340 29228 ft 477 kts 79°
2026-05-05 14:30 -0.23143 119.05600 28020 ft 483 kts 78°
2026-05-05 14:30 -0.22431 119.08850 26816 ft 487 kts 78°
2026-05-05 14:31 -0.21704 119.12173 25503 ft 492 kts 78°
2026-05-05 14:31 -0.20971 119.15530 24420 ft 493 kts 78°
2026-05-05 14:31 -0.20008 119.19938 23240 ft 486 kts 78°
2026-05-05 14:31 -0.19521 119.22163 22644 ft 482 kts 78°
2026-05-05 14:32 -0.18805 119.25430 21789 ft 478 kts 78°
2026-05-05 14:32 -0.18105 119.28620 20982 ft 474 kts 78°
2026-05-05 14:32 -0.17408 119.31818 20187 ft 468 kts 78°
2026-05-05 14:32 -0.16712 119.34989 19409 ft 462 kts 78°
2026-05-05 14:33 -0.16028 119.38110 18658 ft 456 kts 77°
2026-05-05 14:33 -0.15352 119.41193 17930 ft 451 kts 77°
2026-05-05 14:33 -0.14697 119.44221 17262 ft 441 kts 77°
2026-05-05 14:33 -0.14054 119.47205 16577 ft 436 kts 78°
2026-05-05 14:34 -0.13785 119.50190 15950 ft 430 kts 93°
2026-05-05 14:34 -0.14354 119.53064 15369 ft 423 kts 109°
2026-05-05 14:34 -0.15712 119.55639 14781 ft 418 kts 127°
2026-05-05 14:34 -0.17721 119.57705 14204 ft 411 kts 142°
2026-05-05 14:35 -0.20183 119.59133 13599 ft 406 kts 156°
2026-05-05 14:35 -0.22756 119.60269 12995 ft 403 kts 156°
2026-05-05 14:35 -0.25274 119.61383 12358 ft 399 kts 156°
2026-05-05 14:35 -0.27811 119.62509 11683 ft 397 kts 156°
2026-05-05 14:36 -0.30328 119.63630 11080 ft 393 kts 156°
2026-05-05 14:36 -0.32776 119.64724 10929 ft 376 kts 156°
2026-05-05 14:36 -0.35115 119.65766 10812 ft 360 kts 156°
2026-05-05 14:36 -0.37357 119.66761 10682 ft 345 kts 156°
2026-05-05 14:37 -0.39506 119.67712 10553 ft 331 kts 156°
2026-05-05 14:37 -0.41575 119.68631 10434 ft 319 kts 156°
2026-05-05 14:37 -0.43569 119.69520 10328 ft 307 kts 156°
2026-05-05 14:37 -0.45484 119.70372 10199 ft 297 kts 156°
2026-05-05 14:38 -0.47343 119.71200 10063 ft 288 kts 156°
2026-05-05 14:38 -0.49123 119.71992 9922 ft 279 kts 156°
2026-05-05 14:38 -0.50908 119.72786 9506 ft 281 kts 156°
2026-05-05 14:38 -0.52699 119.73581 9096 ft 282 kts 156°
2026-05-05 14:39 -0.54498 119.74379 8710 ft 282 kts 156°
2026-05-05 14:39 -0.56294 119.75176 8323 ft 281 kts 156°
2026-05-05 14:39 -0.58075 119.75968 7933 ft 280 kts 156°
2026-05-05 14:39 -0.59861 119.76760 7505 ft 280 kts 156°
2026-05-05 14:40 -0.61619 119.77540 7098 ft 280 kts 156°
2026-05-05 14:40 -0.63406 119.78338 6685 ft 281 kts 156°
2026-05-05 14:40 -0.65183 119.79131 6270 ft 279 kts 156°
2026-05-05 14:40 -0.66951 119.79918 5847 ft 277 kts 156°
2026-05-05 14:41 -0.68709 119.80697 5435 ft 277 kts 156°
2026-05-05 14:41 -0.70463 119.81470 5025 ft 272 kts 156°
2026-05-05 14:41 -0.72189 119.82233 4613 ft 268 kts 156°
2026-05-05 14:41 -0.73859 119.82973 4226 ft 257 kts 156°
2026-05-05 14:42 -0.75464 119.83688 3847 ft 247 kts 156°
2026-05-05 14:42 -0.77005 119.84375 3517 ft 237 kts 154°
2026-05-05 14:42 -0.78486 119.85034 3167 ft 227 kts 155°
2026-05-05 14:42 -0.79914 119.85666 2824 ft 222 kts 155°
2026-05-05 14:43 -0.81314 119.86286 2493 ft 217 kts 156°
2026-05-05 14:43 -0.82673 119.86892 2187 ft 208 kts 155°
2026-05-05 14:43 -0.83967 119.87463 1867 ft 197 kts 156°
2026-05-05 14:43 -0.85164 119.87994 1571 ft 181 kts 156°
2026-05-05 14:44 -0.86275 119.88488 1340 ft 167 kts 155°
2026-05-05 14:44 -0.87289 119.88941 1094 ft 153 kts 156°
2026-05-05 14:44 -0.88221 119.89353 868 ft 147 kts 156°
2026-05-05 14:44 -0.89144 119.89761 655 ft 144 kts 155°
2026-05-05 14:45 -0.90061 119.90162 435 ft 143 kts 156°
2026-05-05 14:45 -0.90968 119.90562 239 ft 138 kts 155°
2026-05-05 14:45 -0.91673 119.90884 232 ft 72 kts 154°
2026-05-05 14:45 -0.91860 119.90971 232 ft 3 kts 155°
2026-05-05 14:46 -0.91927 119.91001 231 ft 13 kts 155°
2026-05-05 14:46 -0.92014 119.91041 231 ft 17 kts 155°
2026-05-05 14:46 -0.92159 119.91108 230 ft 27 kts 156°
2026-05-05 14:46 -0.92338 119.91187 228 ft 29 kts 155°
2026-05-05 14:47 -0.92511 119.91267 228 ft 20 kts 150°
2026-05-05 14:47 -0.92572 119.91294 230 ft 4 kts 225°
2026-05-05 14:47 -0.92535 119.91267 230 ft 14 kts 339°
2026-05-05 14:47 -0.92418 119.91218 229 ft 20 kts 335°
2026-05-05 14:48 -0.92287 119.91159 230 ft 21 kts 336°
2026-05-05 14:48 -0.92150 119.91099 230 ft 22 kts 336°
2026-05-05 14:48 -0.92008 119.91036 231 ft 23 kts 336°
2026-05-05 14:48 -0.91882 119.90984 232 ft 11 kts 337°
2026-05-05 14:49 -0.91872 119.90930 232 ft 8 kts 243°
2026-05-05 14:49 -0.91898 119.90874 230 ft 9 kts 245°
2026-05-05 14:49 -0.91918 119.90822 229 ft 6 kts 274°
2026-05-05 14:49 -0.91891 119.90795 231 ft 5 kts 333°
2026-05-05 14:50 -0.91861 119.90782 229 ft 4 kts 336°
2026-05-05 14:50 -0.91832 119.90759 229 ft 4 kts 288°
2026-05-05 14:50 -0.91840 119.90735 229 ft 3 kts 246°
2026-05-05 14:50 -0.91848 119.90717 229 ft 2 kts 245°
2026-05-05 14:51 -0.91849 119.90715 229 ft 0 kts 245°